Location: Champs
(48.8539°N, 2.6040°E)
Time: 23:33:54
(UTC+00:00)

Cosmos 1953 - Pass Details

Date: 07 June 2022
Orbit: 533 x 555 km, 82.5° (Epoch: 01 July)

Event Time Altitude Azimuth Distance (km) Brightness Sun altitude
Rises 00:08:05 0° 333° (NNW) 2,710 6.9 -18.3°
Reaches altitude 10° 00:11:04 10° 309° (NW) 1,806 5.4 -18.2°
Maximum altitude 00:13:13 14° 276° (W) 1,539 4.6 -18.2°
Enters shadow 00:14:27 13° 255° (WSW) 1,625 4.5 -18.2°
